Overview Statistics Trail Chart Weather Telemetry Raw packets
 

This is the latest recevied weather packets stored in our database for station/object W5ALL-WX. If no packets are shown the sender has not sent any weather packets the latest 10 day(s).

<< 72 73 74 75 76 77 78 >>
Time Temp. Humidity Pressure Rain* Wind** Luminosity Snow
1777475759 22.22° C 10% 1016.8 hPa 0 mm - - -
1777475459 22.22° C 9% 1016.7 hPa 0 mm - - -
1777475159 22.22° C 10% 1016.7 hPa 0 mm - - -
1777474859 22.22° C 10% 1016.7 hPa 0 mm - - -
1777474559 22.22° C 10% 1016.7 hPa 0 mm - - -
1777474259 22.22° C 10% 1016.9 hPa 0 mm - - -
1777473959 21.67° C 11% 1017 hPa 0 mm - - -
1777473659 21.67° C 10% 1016.9 hPa 0 mm - - -
1777473359 21.67° C 12% 1017 hPa 0 mm - - -
1777473059 21.11° C 12% 1017 hPa 0 mm - - -
1777472759 21.11° C 12% 1016.9 hPa 0 mm - - -
1777472459 20.56° C 13% 1016.8 hPa 0 mm - - -
1777472159 20.56° C 14% 1016.9 hPa 0 mm - - -
1777471859 20.56° C 13% 1016.9 hPa 0 mm - - -
1777471559 20.56° C 12% 1016.9 hPa 0 mm - - -
1777471259 20.56° C 12% 1016.9 hPa 0 mm - - -
1777470959 20.56° C 12% 1016.8 hPa 0 mm - - -
1777470659 20.56° C 12% 1016.7 hPa 0 mm - - -
1777470359 20.56° C 12% 1016.7 hPa 0 mm - - -
1777470064 20.56° C 12% 1016.7 hPa 0 mm - - -
1777469759 20° C 12% 1016.6 hPa 0 mm - - -
1777469459 20° C 12% 1016.6 hPa 0 mm - - -
1777469159 20.56° C 12% 1016.4 hPa 0 mm - - -
1777468859 20.56° C 11% 1016.4 hPa 0 mm - - -
1777468559 20.56° C 11% 1016.4 hPa 0 mm - - -

* Rain latest hour (hover to see other rain measurements)
** Current wind speed in m/s (hover to see current wind gust speed)